| time (UTC) | temp F | wind direction | speed MPH | gust MPH | rain 1hr in | rain 24hr in | rain mn in | humidity % | barometer mb |
| 20260831053122 | 73 | 0 | 0.0 | 3.0 | 0.00 | 0.00 | 0.00 | 89 | 1007.3 |
| 20260831051605 | 73 | 0 | 0.0 | 2.0 | 0.00 | 0.00 | 0.00 | 89 | 1007.3 |
| 20260831050127 | 73 | 77 | 0.0 | 3.0 | 0.00 | 0.00 | 0.00 | 89 | 1007.7 |
| 20260831044613 | 73 | 190 | 0.0 | 3.0 | 0.00 | 0.00 | 0.00 | 89 | 1008.1 |
| 20260831043108 | 73 | 0 | 0.0 | 2.0 | 0.00 | 0.00 | 0.00 | 89 | 1008.4 |
| 20260831041621 | 73 | 0 | 1.0 | 3.0 | 0.00 | 0.00 | 0.00 | 89 | 1008.6 |
| 20260831040112 | 73 | 0 | 0.0 | 2.0 | 0.00 | 0.00 | 0.00 | 88 | 1008.8 |
| 20260831034608 | 74 | 0 | 0.0 | 3.0 | 0.00 | 0.00 | 0.00 | 88 | 1008.9 |
| 20260831033112 | 74 | 0 | 1.0 | 4.0 | 0.00 | 0.00 | 0.00 | 88 | 1008.8 |
| 20260831031602 | 74 | 153 | 0.0 | 3.0 | 0.00 | 0.00 | 0.00 | 87 | 1008.6 |
| 20260831030107 | 74 | 0 | 1.0 | 3.0 | 0.00 | 0.00 | 0.00 | 87 | 1008.6 |
| 20260831024606 | 74 | 50 | 1.0 | 6.0 | 0.00 | 0.00 | 0.00 | 86 | 1008.5 |
| 20260831023109 | 75 | 48 | 1.0 | 7.0 | 0.00 | 0.00 | 0.00 | 86 | 1008.3 |
| 20260831021605 | 75 | 5 | 1.0 | 5.0 | 0.00 | 0.00 | 0.00 | 85 | 1008.4 |
| 20260831020108 | 75 | 88 | 1.0 | 6.0 | 0.00 | 0.00 | 0.00 | 85 | 1008.5 |
| 20260831014606 | 75 | 53 | 1.0 | 4.0 | 0.00 | 0.00 | 0.00 | 84 | 1008.5 |
| 20260831013102 | 76 | 84 | 1.0 | 4.0 | 0.00 | 0.00 | 0.00 | 84 | 1008.4 |
| 20260831011600 | 76 | 63 | 2.0 | 6.0 | 0.00 | 0.00 | 0.00 | 83 | 1008.5 |
| 20260831010113 | 77 | 93 | 0.0 | 3.0 | 0.00 | 0.00 | 0.00 | 83 | 1008.5 |
| 20260831004608 | 77 | 92 | 1.0 | 6.0 | 0.00 | 0.00 | 0.00 | 82 | 1008.6 |
| 20260831003111 | 77 | 44 | 0.0 | 4.0 | 0.00 | 0.00 | 0.00 | 81 | 1008.7 |
| 20260831001605 | 78 | 55 | 2.0 | 7.0 | 0.00 | 0.00 | 0.00 | 80 | 1008.5 |
| 20260831000106 | 78 | 78 | 2.0 | 6.0 | 0.00 | 0.00 | 0.00 | 80 | 1008.5 |
| 20260830234607 | 78 | 37 | 2.0 | 7.0 | 0.00 | 0.00 | 0.00 | 80 | 1008.5 |
| 20260830233104 | 79 | 0 | 2.0 | 10.0 | 0.00 | 0.00 | 0.00 | 79 | 1008.5 |
| 20260830231622 | 79 | 44 | 2.0 | 9.0 | 0.00 | 0.00 | 0.00 | 79 | 1008.4 |
| 20260830224612 | 79 | 92 | 2.0 | 7.0 | 0.00 | 0.00 | 0.00 | 78 | 1008.4 |
| 20260830223103 | 80 | 0 | 2.0 | 7.0 | 0.00 | 0.00 | 0.00 | 78 | 1008.4 |
| 20260830221606 | 79 | 86 | 1.0 | 7.0 | 0.00 | 0.00 | 0.00 | 78 | 1008.5 |
| 20260830220101 | 79 | 57 | 2.0 | 8.0 | 0.00 | 0.00 | 0.00 | 79 | 1008.4 |
| 20260830214606 | 79 | 64 | 2.0 | 10.0 | 0.00 | 0.00 | 0.00 | 78 | 1008.7 |
| 20260830213102 | 79 | 61 | 3.0 | 8.0 | 0.00 | 0.00 | 0.00 | 78 | 1008.8 |
| 20260830211608 | 78 | 83 | 1.0 | 8.0 | 0.00 | 0.00 | 0.00 | 79 | 1008.8 |
| 20260830210139 | 78 | 0 | 2.0 | 7.0 | 0.00 | 0.00 | 0.00 | 79 | 1009.1 |
| 20260830204611 | 78 | 93 | 2.0 | 5.0 | 0.00 | 0.00 | 0.00 | 78 | 1009.1 |
| 20260830203104 | 78 | 38 | 1.0 | 8.0 | 0.00 | 0.00 | 0.00 | 79 | 1009.1 |
| 20260830201609 | 78 | 65 | 1.0 | 4.0 | 0.00 | 0.00 | 0.00 | 79 | 1009.3 |
| 20260830200118 | 78 | 51 | 2.0 | 9.0 | 0.00 | 0.00 | 0.00 | 78 | 1009.5 |
| 20260830194648 | 77 | 41 | 2.0 | 7.0 | 0.00 | 0.00 | 0.00 | 81 | 1009.4 |
| 20260830193107 | 75 | 38 | 1.0 | 7.0 | 0.00 | 0.00 | 0.00 | 82 | 1009.6 |
| 20260830191615 | 75 | 0 | 1.0 | 7.0 | 0.00 | 0.00 | 0.00 | 81 | 1009.9 |
| 20260830190110 | 75 | 0 | 1.0 | 8.0 | 0.00 | 0.00 | 0.00 | 83 | 1010.1 |
| 20260830184612 | 74 | 122 | 1.0 | 8.0 | 0.00 | 0.00 | 0.00 | 83 | 1010.3 |
| 20260830183116 | 74 | 86 | 2.0 | 8.0 | 0.00 | 0.00 | 0.00 | 82 | 1010.6 |
| 20260830181606 | 74 | 97 | 1.0 | 6.0 | 0.00 | 0.00 | 0.00 | 83 | 1010.7 |
| 20260830180109 | 74 | 49 | 2.0 | 7.0 | 0.00 | 0.00 | 0.00 | 82 | 1010.7 |
| 20260830174610 | 74 | 89 | 1.0 | 7.0 | 0.00 | 0.00 | 0.00 | 82 | 1010.6 |
| 20260830173130 | 74 | 101 | 2.0 | 7.0 | 0.00 | 0.00 | 0.00 | 81 | 1010.5 |
| 20260830171605 | 74 | 11 | 2.0 | 8.0 | 0.00 | 0.00 | 0.00 | 80 | 1010.6 |
| 20260830170106 | 75 | 72 | 2.0 | 7.0 | 0.00 | 0.00 | 0.00 | 79 | 1010.3 |
| 20260830164603 | 75 | 90 | 3.0 | 10.0 | 0.00 | 0.00 | 0.00 | 81 | 1010.2 |
| 20260830163102 | 73 | 53 | 3.0 | 10.0 | 0.00 | 0.00 | 0.00 | 83 | 1010.2 |
| 20260830161625 | 71 | 91 | 2.0 | 5.0 | 0.00 | 0.00 | 0.00 | 87 | 1010.2 |
| 20260830154606 | 69 | 28 | 2.0 | 6.0 | 0.00 | 0.00 | 0.00 | 90 | 1010.3 |
| 20260830153106 | 68 | 22 | 2.0 | 5.0 | 0.00 | 0.00 | 0.00 | 91 | 1010.3 |
| 20260830151601 | 68 | 46 | 2.0 | 5.0 | 0.00 | 0.00 | 0.00 | 91 | 1010.7 |
| 20260830150115 | 67 | 59 | 2.0 | 5.0 | 0.00 | 0.00 | 0.00 | 92 | 1010.7 |
| 20260830144606 | 67 | 40 | 2.0 | 6.0 | 0.00 | 0.00 | 0.00 | 93 | 1010.7 |
| 20260830143104 | 67 | 42 | 1.0 | 4.0 | 0.00 | 0.00 | 0.00 | 93 | 1010.8 |
| 20260830141604 | 67 | 32 | 2.0 | 5.0 | 0.00 | 0.00 | 0.00 | 93 | 1010.6 |
| 20260830140116 | 66 | 45 | 1.0 | 4.0 | 0.00 | 0.00 | 0.00 | 94 | 1010.5 |
| 20260830134633 | 66 | 0 | 1.0 | 5.0 | 0.00 | 0.04 | 0.00 | 94 | 1010.5 |
| 20260830133100 | 66 | 50 | 1.0 | 5.0 | 0.00 | 0.04 | 0.00 | 94 | 1010.5 |
| 20260830131637 | 66 | 37 | 0.0 | 3.0 | 0.00 | 0.04 | 0.00 | 94 | 1010.4 |
| 20260830130106 | 66 | 25 | 0.0 | 5.0 | 0.00 | 0.04 | 0.00 | 94 | 1010.3 |
| 20260830124603 | 66 | 91 | 1.0 | 5.0 | 0.00 | 0.50 | 0.00 | 94 | 1010.1 |
| 20260830123120 | 66 | 46 | 1.0 | 7.0 | 0.00 | 0.50 | 0.00 | 94 | 1010.3 |
| 20260830121606 | 66 | 51 | 1.0 | 4.0 | 0.00 | 0.50 | 0.00 | 94 | 1010.0 |
| 20260830120107 | 66 | 42 | 1.0 | 8.0 | 0.00 | 0.50 | 0.00 | 94 | 1009.9 |
| 20260830114611 | 66 | 41 | 1.0 | 3.0 | 0.00 | 0.56 | 0.00 | 94 | 1010.1 |
| 20260830113106 | 66 | 20 | 2.0 | 3.0 | 0.00 | 0.56 | 0.00 | 93 | 1010.0 |
| 20260830111601 | 66 | 70 | 1.0 | 6.0 | 0.00 | 0.56 | 0.00 | 93 | 1009.8 |
| 20260830110106 | 66 | 0 | 1.0 | 3.0 | 0.00 | 0.56 | 0.00 | 93 | 1009.9 |
| 20260830104609 | 66 | 41 | 1.0 | 4.0 | 0.00 | 0.68 | 0.00 | 93 | 1009.9 |
| 20260830103107 | 66 | 78 | 0.0 | 3.0 | 0.00 | 0.68 | 0.00 | 93 | 1010.3 |
| 20260830101602 | 66 | 0 | 0.0 | 2.0 | 0.00 | 0.68 | 0.00 | 93 | 1010.2 |
| 20260830100106 | 66 | 32 | 0.0 | 2.0 | 0.00 | 0.68 | 0.00 | 93 | 1010.2 |
| 20260830094602 | 66 | 46 | 0.0 | 4.0 | 0.00 | 0.68 | 0.00 | 93 | 1009.8 |
| 20260830093109 | 66 | 39 | 1.0 | 3.0 | 0.00 | 0.68 | 0.00 | 93 | 1009.9 |
| 20260830091611 | 66 | 0 | 0.0 | 3.0 | 0.00 | 0.68 | 0.00 | 93 | 1009.9 |
| 20260830090106 | 66 | 43 | 1.0 | 3.0 | 0.00 | 0.68 | 0.00 | 92 | 1009.8 |
| 20260830084610 | 66 | 0 | 0.0 | 3.0 | 0.00 | 0.68 | 0.00 | 92 | 1010.0 |
| 20260830083107 | 66 | 0 | 0.0 | 3.0 | 0.00 | 0.68 | 0.00 | 92 | 1010.1 |
| 20260830081604 | 66 | 0 | 0.0 | 3.0 | 0.00 | 0.68 | 0.00 | 92 | 1009.8 |
| 20260830080117 | 66 | 0 | 0.0 | 3.0 | 0.00 | 0.68 | 0.00 | 92 | 1010.1 |
| 20260830074610 | 66 | 44 | 0.0 | 2.0 | 0.00 | 0.68 | 0.00 | 92 | 1010.2 |
| 20260830073117 | 66 | 0 | 0.0 | 2.0 | 0.00 | 0.68 | 0.00 | 91 | 1010.6 |
| 20260830071607 | 67 | 42 | 0.0 | 2.0 | 0.00 | 0.68 | 0.00 | 91 | 1010.3 |
| 20260830070109 | 67 | 0 | 0.0 | 3.0 | 0.00 | 0.68 | 0.00 | 91 | 1010.6 |
| 20260830064634 | 67 | 58 | 1.0 | 4.0 | 0.00 | 0.68 | 0.00 | 91 | 1010.6 |
| 20260830063105 | 67 | 0 | 0.0 | 2.0 | 0.00 | 0.68 | 0.00 | 91 | 1010.8 |
| 20260830061631 | 67 | 40 | 1.0 | 4.0 | 0.00 | 0.68 | 0.00 | 91 | 1010.7 |
| 20260830060108 | 67 | 53 | 0.0 | 2.0 | 0.00 | 0.68 | 0.00 | 91 | 1010.9 |
| 20260830054603 | 67 | 47 | 0.0 | 5.0 | 0.00 | 0.68 | 0.00 | 91 | 1011.0 |